This is the latest recevied weather packets stored in our database for station/object IW3HBX-13. If no packets are shown the sender has not sent any weather packets the latest 10 day(s).
| Time | Temp. | Humidity | Pressure | Rain* | Wind** | Luminosity | Snow |
|---|---|---|---|---|---|---|---|
| 1777506127 | 12.78° C | 71% | 1022.4 hPa | 0 mm | - | 0 W/m² | - |
| 1777505770 | 12.78° C | 72% | 1022.3 hPa | 0 mm | - | 0 W/m² | - |
| 1777505407 | 13.33° C | 72% | 1022.3 hPa | 0 mm | - | 0 W/m² | - |
| 1777505048 | 13.33° C | 72% | 1022.2 hPa | 0 mm | - | 0 W/m² | - |
| 1777504690 | 13.33° C | 72% | 1022.3 hPa | 0 mm | - | 0 W/m² | - |
| 1777504330 | 13.33° C | 72% | 1022.3 hPa | 0 mm | - | 0 W/m² | - |
| 1777503967 | 13.33° C | 72% | 1022.3 hPa | 0 mm | - | 0 W/m² | - |
| 1777503247 | 13.33° C | 73% | 1022.1 hPa | 0 mm | - | 0 W/m² | - |
| 1777502888 | 13.33° C | 73% | 1022.2 hPa | 0 mm | - | 0 W/m² | - |
| 1777502529 | 13.33° C | 73% | 1022.1 hPa | 0 mm | - | 0 W/m² | - |
| 1777502167 | 13.33° C | 73% | 1021.9 hPa | 0 mm | - | 0 W/m² | - |
| 1777501807 | 13.33° C | 73% | 1021.9 hPa | 0 mm | - | 0 W/m² | - |
| 1777501450 | 13.33° C | 73% | 1021.7 hPa | 0 mm | - | 0 W/m² | - |
| 1777501087 | 13.33° C | 75% | 1021.7 hPa | 0 mm | - | 0 W/m² | - |
| 1777500727 | 13.33° C | 75% | 1021.6 hPa | 0 mm | - | 0 W/m² | - |
| 1777500368 | 13.33° C | 75% | 1021.5 hPa | 0 mm | - | 0 W/m² | - |
| 1777499647 | 13.33° C | 78% | 1021.4 hPa | 0 mm | - | 0 W/m² | - |
| 1777499289 | 13.33° C | 79% | 1021.2 hPa | 0 mm | - | 0 W/m² | - |
| 1777498927 | 13.33° C | 79% | 1021.3 hPa | 0 mm | - | 0 W/m² | - |
| 1777498568 | 13.33° C | 81% | 1021.2 hPa | 0 mm | - | 0 W/m² | - |
| 1777498207 | 13.89° C | 79% | 1021.4 hPa | 0.51 mm | - | 0 W/m² | - |
| 1777497847 | 13.33° C | 78% | 1021.3 hPa | 0.51 mm | - | 0 W/m² | - |
| 1777497487 | 13.33° C | 79% | 1021.1 hPa | 0.51 mm | - | 0 W/m² | - |
| 1777497129 | 13.33° C | 78% | 1021 hPa | 0.51 mm | - | 0 W/m² | - |
| 1777496768 | 13.89° C | 78% | 1021 hPa | 0.51 mm | - | 0 W/m² | - |
* Rain latest hour (hover to see other rain measurements)
** Current wind speed in m/s (hover to see current wind gust speed)